Location: Stilling
(56.0622°N, 9.9882°E)
Time: 00:35:22
(UTC+00:00)

Cosmos 2341 Rocket - Pass Details

Date: 13 July 2020
Orbit: 968 x 1004 km, 82.9° (Epoch: 03 August)

Event Time Altitude Azimuth Distance (km) Brightness Sun altitude
Exits shadow 21:43:32 - 185° (S) 2,956 6.0 -9.3°
Reaches altitude 10° 21:44:11 10° 184° (S) 2,711 5.8 -9.4°
Maximum altitude 21:50:23 81° 99° (E) 988 4.0 -9.7°
Drops below altitude 10° 21:56:38 10° 13° (NNE) 2,726 7.3 -10.0°
Sets 21:59:09 0° 13° (NNE) 3,679 8.1 -10.1°
